Погода в Старом Чамзине

Россия / Республика Мордовия     55°03′39″N   45°37′11″E
темп.,
°C
ветер,
м/с
пор.,
м/с
влажн.,
%
обл.,
%
осадки,
мм/ч
давл.,
гПа
погр.,
м
24 января, пн
пн2400:00−13св2298100 0.0 103410
03:00−13св22100100 0.0 103520
06:00−15св22100100 0.0 103523
09:00−15св23100100 0.1 103655
12:00−10в249670 0.0 1036128
15:00−10всв239753 0.0 103549
18:00−15всв2210098 0.0 103610
21:00−18в2210078 0.0 10359
25 января, вт
вт2500:00−19юв111007 0.0 10349
03:00−20в1110055 0.0 10339
06:00−21юв1110065 0.0 10319
09:00−20ююв2210054 0.0 103021
12:00−12ю25905 0.0 1027145
15:00−12ююв229479 0.0 102616
18:00−18юв229834 0.0 10249
21:00−15ююв239881 0.0 102342
26 января, ср
ср2600:00−13ююв289792 0.1 1021206
03:00−11ю399594 0.2 1019246
06:00−12ю389687 0.1 1018214
09:00−12ю289774 0.2 1018194
12:00−9ююз3694100 0.1 1017297
15:00−9ююз369497 0.1 1017302
18:00−12ююз2598100 0.1 101881
21:00−12ююз2698100 0.1 1018124
27 января, чт
чт2700:00−16ююз239997 0.0 101951
03:00−14ю3898100 0.1 1019185
06:00−14ю389779 0.1 1019170
09:00−14ююз389682 0.1 1019200
12:00−11юз4793100 0.1 1019324
15:00−11ююз3695100 0.1 1019240
18:00−16ю2210086 0.0 102027
21:00−17ю23100100 0.1 101949
28 января, пт
пт2800:00−19ю24100100 0.0 101951
03:00−20ю23100100 0.1 101937
06:00−17ююв239987 0.1 101849
09:00−15ююв389895 0.1 1018152
12:00−9ю4109599 0.1 1016287
15:00−8ююв4109364 0.1 1015313
18:00−12юв3610096 0.0 101582
21:00−10ююв3129797 0.0 1013236